DateTimeUTC,F1_A11,F1_S11,BsB_S11,BsG_S11,BsR_S11,BbsB_S11,BbsG_S11,BbsR_S11,BaB_A11,BaG_A11,BaR_A11,Tu_S11,T_S11,Uu_S11,U_S11,P_S11,T1_A11
2021-01-10T21:00:00Z,00000200,21000000,,,,,,,0000.54,0000.18,-000.04,16.0,23.2,,00.0,0640.2,30.8
2021-01-10T21:01:00Z,00000200,21000000,,,,,,,-000.06,-000.06,-000.01,15.9,23.2,,00.0,0640.2,30.8
2021-01-10T21:02:00Z,00000200,21000000,,,,,,,-000.24,-000.08,0000.26,15.9,23.2,,00.0,0640.2,30.8
2021-01-10T21:03:00Z,00000200,61000000,,,,,,,0000.01,-000.26,-000.06,15.9,23.2,,00.0,0640.2,30.8
2021-01-10T21:04:00Z,00000200,41000000,0000.95,0000.05,-000.27,0000.49,0000.10,-000.17,0000.18,0000.34,-000.19,16.0,22.9,,00.0,0641.0,30.8
2021-01-10T21:05:00Z,00000200,01000000,0000.74,0000.10,-000.11,0000.39,0000.06,0000.15,0000.12,0000.26,0000.46,16.1,22.9,,00.0,0641.1,30.8
2021-01-10T21:06:00Z,00000200,01000000,-000.16,0000.04,0000.18,0000.44,0000.21,-000.03,0000.11,0000.10,-000.10,16.1,22.9,,00.0,0641.1,30.8
2021-01-10T21:07:00Z,00000200,01000000,0000.32,0000.20,-000.08,0000.84,0000.17,0000.01,0000.15,0000.49,-000.08,16.2,22.9,,00.0,0641.1,30.8
2021-01-10T21:08:00Z,00000200,01000000,0000.48,0000.32,0000.20,0000.10,0000.17,-000.08,0000.25,-000.31,0000.30,16.3,22.9,,00.0,0641.2,30.8
2021-01-10T21:09:00Z,00000200,01000000,0000.63,0000.22,-000.18,-000.32,0000.19,0000.11,0000.08,0000.08,0000.11,16.4,22.9,,00.0,0641.2,30.8
2021-01-10T21:10:00Z,00000200,01000000,-000.02,-000.07,-000.04,0000.12,-000.21,0000.21,-000.36,0000.02,-000.39,16.4,23.0,,00.0,0641.2,30.9
2021-01-10T21:11:00Z,00000200,01000000,0000.88,0000.09,-000.08,-000.08,0000.02,0000.09,0000.17,0000.24,0000.21,16.5,23.0,,00.0,0641.2,30.9
2021-01-10T21:12:00Z,00000200,01000000,0000.19,0000.21,-000.04,0000.86,0000.10,0000.07,0000.14,-000.42,-000.09,16.5,23.0,,00.0,0641.2,30.9
2021-01-10T21:13:00Z,00000200,01000000,0000.36,-000.18,0000.02,0000.59,0000.17,0000.35,-000.31,0000.07,0000.11,16.5,23.0,,00.0,0641.2,30.9
2021-01-10T21:14:00Z,00000200,01000000,0000.41,0000.21,0000.19,0000.34,0000.14,0000.26,0000.04,-000.01,-000.07,16.5,23.0,,00.0,0641.2,30.9
2021-01-10T21:15:00Z,00000200,01000000,0000.46,0000.02,0000.22,0000.36,0000.39,0000.14,-000.03,0000.11,-000.13,16.4,23.0,,00.0,0641.3,30.8
2021-01-10T21:16:00Z,00000200,01000000,0000.62,0000.17,0000.02,0000.68,0000.02,0000.23,-000.15,-000.31,-000.05,16.4,23.0,,00.0,0641.3,30.8
2021-01-10T21:17:00Z,00000200,01000000,0000.16,0000.04,-000.03,0000.15,0000.09,-000.09,0000.23,-000.34,0000.04,16.3,23.0,,00.0,0641.3,30.8
2021-01-10T21:18:00Z,00000200,01000000,-000.05,0000.15,0000.00,0000.16,0000.10,0000.41,-000.40,0000.35,0000.07,16.3,22.9,,00.0,0641.3,30.8
2021-01-10T21:19:00Z,00000200,01000000,0000.37,0000.04,0000.06,0000.08,-000.01,-000.05,-000.03,0000.03,-000.10,16.3,22.9,,00.0,0641.3,30.8
2021-01-10T21:20:00Z,00000200,01000000,0000.25,0000.13,0000.14,-000.28,0000.17,-000.05,0000.51,0000.09,0000.34,16.3,22.9,,00.0,0641.3,30.8
2021-01-10T21:21:00Z,00000200,01000000,0000.14,0000.09,-000.02,0000.24,-000.15,-000.18,-000.02,0000.08,-000.36,16.3,22.9,,00.0,0641.3,30.9
2021-01-10T21:22:00Z,00000200,01000000,-000.45,0000.15,-000.00,-000.16,0000.01,0000.11,-000.15,-000.13,0000.39,16.4,22.9,,00.0,0641.4,30.8
2021-01-10T21:23:00Z,00000200,01000000,-000.06,-000.03,0000.34,0000.19,0000.15,0000.35,0000.25,0000.60,-000.06,16.5,23.0,,00.0,0641.4,30.8
2021-01-10T21:24:00Z,00000200,01000000,0000.38,-000.13,-000.19,-000.38,-000.03,0000.15,-000.14,-000.58,-000.35,16.5,23.0,,00.0,0641.4,30.9
2021-01-10T21:25:00Z,00000200,01000000,0000.09,-000.27,0000.04,0000.41,0000.04,-000.14,-000.15,-000.08,0000.19,16.6,23.0,,00.0,0641.4,30.9
2021-01-10T21:26:00Z,00000200,01010000,0000.38,-000.24,0000.13,0000.08,-000.13,-000.08,0000.25,-000.00,-000.21,16.6,23.0,,00.0,0641.4,30.9
2021-01-10T21:27:00Z,00000200,01000000,0000.45,0000.15,0000.06,0000.05,0000.07,0000.06,0000.09,0000.16,0000.20,16.6,23.0,,00.0,0641.4,30.9
2021-01-10T21:28:00Z,00000200,01000000,0000.28,0000.29,-000.19,-000.05,-000.01,0000.06,-000.26,-000.19,-000.47,16.5,23.0,,00.0,0641.4,30.8
2021-01-10T21:29:00Z,00000200,01000000,-000.33,0000.22,0000.09,-000.11,0000.06,-000.21,-000.15,-000.19,0000.21,16.5,23.0,,00.0,0641.4,30.8
2021-01-10T21:30:00Z,00000200,01000000,0000.27,0000.06,0000.38,0000.30,0000.04,0000.11,0000.02,0000.34,-000.06,16.4,23.0,,00.0,0641.4,30.8
2021-01-10T21:31:00Z,00000200,01000000,0000.13,0000.01,0000.23,0000.20,0000.08,-000.14,0000.20,0000.01,0000.14,16.4,23.0,,00.0,0641.4,30.8
2021-01-10T21:32:00Z,00000200,01000000,0000.22,0000.16,0000.04,-000.01,0000.05,0000.33,-000.03,-000.15,-000.12,16.3,23.0,,00.0,0641.4,30.8
2021-01-10T21:33:00Z,00000200,01000000,0001.23,0000.44,-000.10,0000.04,0000.15,0000.11,0000.06,-000.40,-000.05,16.3,22.9,,00.0,0641.4,30.8
2021-01-10T21:34:00Z,00000200,01000000,0000.46,0000.17,-000.22,-000.49,0000.36,-000.09,-000.10,0000.26,0000.53,16.3,22.9,,00.0,0641.4,30.8
2021-01-10T21:35:00Z,00000200,01000000,0001.04,0000.22,0000.14,0000.30,-000.05,0000.12,0000.17,0000.13,0000.05,16.3,22.9,,00.0,0641.4,30.8
2021-01-10T21:36:00Z,00000200,01000000,-000.05,0000.24,0000.09,0000.75,0000.19,0000.21,-000.09,0000.26,0000.10,16.3,22.9,,00.0,0641.4,30.8
2021-01-10T21:37:00Z,00000200,01000000,0000.40,0000.15,-000.13,0000.43,0000.02,0000.01,0000.11,0000.46,-000.01,16.4,22.9,,00.0,0641.4,30.8
2021-01-10T21:38:00Z,00000200,01000000,0000.24,-000.06,0000.13,0000.95,0000.04,0000.13,0000.47,0000.09,-000.02,16.4,22.9,,00.0,0641.4,30.8
2021-01-10T21:39:00Z,00000200,01000000,0000.98,0000.01,0000.04,0000.28,-000.25,0000.15,-000.04,0000.18,0000.18,16.5,23.0,,00.0,0641.4,30.9
2021-01-10T21:40:00Z,00000200,01000000,0000.17,0000.11,-000.02,0000.09,-000.04,0000.15,-000.18,-000.16,0000.04,16.6,23.0,,00.0,0641.4,30.9
2021-01-10T21:41:00Z,00000200,01000000,0000.91,0000.10,-000.19,-000.04,-000.05,0000.02,0000.04,-000.20,-000.25,16.6,23.1,,00.0,0641.4,30.9
2021-01-10T21:42:00Z,00000200,01000000,0000.98,0000.17,0000.12,0000.22,0000.17,0000.02,-000.05,-000.27,0000.00,16.7,23.1,,00.0,0641.4,30.9
2021-01-10T21:43:00Z,00000200,01000000,0000.44,-000.20,0000.03,-000.02,0000.02,0000.10,-000.04,0000.16,-000.22,16.6,23.0,,00.0,0641.4,30.9
2021-01-10T21:44:00Z,00000200,01000000,0000.46,-000.03,-000.14,0000.32,0000.03,0000.02,0000.12,0000.24,0000.20,16.6,23.0,,00.0,0641.4,30.9
2021-01-10T21:45:00Z,00000200,01000000,0000.37,0000.21,-000.00,0000.18,0000.04,0000.10,-000.08,-000.04,0000.01,16.5,23.0,,00.0,0641.3,30.8
2021-01-10T21:46:00Z,00000200,01000000,-000.24,0000.06,-000.12,-000.19,0000.17,0000.03,0000.30,0000.13,-000.01,16.5,23.0,,00.0,0641.3,30.8
2021-01-10T21:47:00Z,00000200,01000000,0000.49,-000.15,0000.03,-000.11,-000.05,-000.01,-000.20,-000.19,-000.26,16.5,23.0,,00.0,0641.3,30.9
2021-01-10T21:48:00Z,00000200,01000000,0000.64,0000.23,-000.05,0000.52,0000.13,0000.17,0000.06,-000.24,-000.06,16.4,23.0,,00.0,0641.3,30.8
2021-01-10T21:49:00Z,00000200,01000000,-000.80,0000.08,-000.04,0000.25,0000.15,-000.07,-000.23,0000.23,0000.15,16.4,22.9,,00.0,0641.3,30.8
2021-01-10T21:50:00Z,00000200,01000000,0000.58,0000.05,-000.02,-000.17,0000.01,-000.14,0000.26,0000.15,0000.28,16.4,22.9,,00.0,0641.3,30.8
2021-01-10T21:51:00Z,00000200,01000000,0000.99,-000.14,0000.24,0000.08,0000.19,0000.23,0000.26,0000.25,0000.02,16.4,22.9,,00.0,0641.3,30.8
2021-01-10T21:52:00Z,00000200,01000000,0000.16,0000.44,0000.04,0000.22,-000.25,0000.13,0000.09,0000.05,0000.34,16.4,23.0,,00.0,0641.3,30.8
2021-01-10T21:53:00Z,00000200,01000000,0000.62,-000.09,0000.02,0000.10,-000.11,0000.32,-000.01,-000.30,-000.05,16.5,23.0,,00.0,0641.3,30.9
2021-01-10T21:54:00Z,00000200,01000000,0000.20,0000.20,-000.02,0000.11,0000.25,0000.13,0000.12,0000.02,-000.34,16.6,23.1,,00.0,0641.4,30.9
2021-01-10T21:55:00Z,00000200,01000000,0000.31,0000.26,0000.04,0000.02,0000.12,0000.15,-000.40,-000.09,0000.15,16.6,23.1,,00.0,0641.4,30.9
2021-01-10T21:56:00Z,00000200,01000000,-000.12,0000.36,-000.02,0000.92,0000.11,0000.00,0000.22,-000.04,0000.13,16.6,23.0,,00.0,0641.4,30.9
2021-01-10T21:57:00Z,00000200,41000000,,,,,,,0000.19,0000.65,0000.02,16.7,23.1,,00.0,0641.5,30.9
2021-01-10T21:58:00Z,00000200,61000000,,,,,,,-000.37,-000.50,-000.08,16.2,23.2,,00.0,0640.5,30.9
2021-01-10T21:59:00Z,00000200,21000000,,,,,,,0000.11,0000.19,0000.14,16.2,23.3,,00.0,0640.5,30.8
